This is the latest recevied weather packets stored in our database for station/object IR9AK-10. If no packets are shown the sender has not sent any weather packets the latest 10 day(s).
| Time | Temp. | Humidity | Pressure | Rain* | Wind** | Luminosity | Snow |
|---|---|---|---|---|---|---|---|
| 1777892625 | 20° C | 52% | 1064.9 hPa | - | - | - | - |
| 1777892027 | 20° C | 53% | 1065 hPa | - | - | - | - |
| 1777891428 | 19.44° C | 56% | 1065.2 hPa | - | - | - | - |
| 1777890828 | 19.44° C | 56% | 1065.3 hPa | - | - | - | - |
| 1777890229 | 19.44° C | 55% | 1065.5 hPa | - | - | - | - |
| 1777889630 | 19.44° C | 56% | 1065.5 hPa | - | - | - | - |
| 1777889032 | 19.44° C | 53% | 1065.7 hPa | - | - | - | - |
| 1777888433 | 19.44° C | 52% | 1065.6 hPa | - | - | - | - |
| 1777887833 | 18.89° C | 53% | 1065.6 hPa | - | - | - | - |
| 1777883172 | 18.89° C | 49% | 1065.4 hPa | - | - | - | - |
| 1777882573 | 18.89° C | 46% | 1065.5 hPa | - | - | - | - |
| 1777881974 | 18.89° C | 44% | 1065.5 hPa | - | - | - | - |
| 1777881375 | 18.89° C | 46% | 1065.6 hPa | - | - | - | - |
| 1777880775 | 18.89° C | 45% | 1065.5 hPa | - | - | - | - |
| 1777880175 | 18.89° C | 43% | 1065.4 hPa | - | - | - | - |
| 1777879577 | 18.89° C | 43% | 1065.5 hPa | - | - | - | - |
| 1777878978 | 18.89° C | 44% | 1065.5 hPa | - | - | - | - |
| 1777878379 | 18.89° C | 43% | 1065.6 hPa | - | - | - | - |
| 1777877780 | 18.89° C | 43% | 1065.5 hPa | - | - | - | - |
| 1777877181 | 18.89° C | 41% | 1065.5 hPa | - | - | - | - |
| 1777876583 | 18.33° C | 39% | 1065.5 hPa | - | - | - | - |
| 1777875983 | 18.33° C | 44% | 1065.6 hPa | - | - | - | - |
| 1777875384 | 18.33° C | 45% | 1065.5 hPa | - | - | - | - |
| 1777874785 | 18.33° C | 43% | 1065.4 hPa | - | - | - | - |
| 1777874200 | 17.78° C | 45% | 1065.4 hPa | - | - | - | - |
* Rain since midnight (hover to see other rain measurements)
** Current wind speed in m/s (hover to see current wind gust speed)